This demonstration page uses our WeatherBlox Daily Observations layout. Learn more.

Hourly Observations for December 16, 2018

Temp ( °F °C ) Dew Point ( °F °C ) Humidity (%) Winds ( mph kmh ) Pressure ( in mb ) Visibility ( mi km ) Precip ( " mm )
12:15 am 00:15 Clear 32 0.1 28 -2 86 86 WNW 9 15 30.27 1025 10 16.0934 0 0
12:35 am 00:35 Clear 33 0.4 28 -2 84 84 WNW 9 15 30.27 1025 10 16.0934 0 0
12:55 am 00:55 Clear 32 0.2 28 -2.2 84 84 NW 9 15 30.27 1025 10 16.0934 0 0
1:15 am 01:15 Clear 32 0 28 -2.1 86 86 NW 9 15 30.27 1025 10 16.0934 0 0
1:35 am 01:35 Clear 32 0.2 29 -1.8 87 87 NW 8 13 30.3 1026 10 16.0934 0 0
1:55 am 01:55 Clear 34 1.2 29 -1.5 82 82 NW 9 15 30.3 1026 10 16.0934 0 0
2:15 am 02:15 Clear 33 0.3 29 -1.7 87 87 NW 7 11 30.3 1026 10 16.0934 0 0
2:35 am 02:35 Clear 32 0.1 28 -2 86 86 NW 5 7 30.3 1026 10 16.0934 0 0
2:55 am 02:55 Clear 31 -0.3 28 -2.1 88 88 NW 7 11 30.3 1026 10 16.0934 0 0
3:15 am 03:15 Clear 31 -0.5 28 -2.1 89 89 NW 7 11 30.3 1026 10 16.0934 0 0
3:35 am 03:35 Clear 31 -0.7 28 -2.2 90 90 WNW 7 11 30.3 1026 10 16.0934 0 0
3:55 am 03:55 Clear 31 -0.7 28 -2.4 88 88 NW 8 13 30.3 1026 10 16.0934 0 0
4:15 am 04:15 Clear 31 -0.3 28 -2.5 85 85 NNW 7 11 30.3 1026 10 16.0934 0 0
4:35 am 04:35 Clear 31 -0.7 27 -2.9 85 85 NNW 8 13 30.3 1026 10 16.0934 0 0
4:55 am 04:55 Clear 32 0 28 -2.2 85 85 NNW 9 15 30.3 1026 10 16.0934 0 0
5:15 am 05:15 Clear 31 -0.5 28 -2.5 87 87 WNW 6 9 30.33 1027 10 16.0934 0 0
5:35 am 05:35 Clear 30 -0.9 28 -2.5 89 89 NW 6 9 30.33 1027 10 16.0934 0 0
5:55 am 05:55 Clear 29 -1.4 27 -2.9 90 90 NW 5 7 30.33 1027 10 16.0934 0 0
6:15 am 06:15 Clear 30 -1.3 27 -2.9 89 89 NW 7 11 30.33 1027 10 16.0934 0 0
6:35 am 06:35 Clear 29 -1.8 26 -3.1 91 91 NW 6 9 30.36 1028 10 16.0934 0 0
6:55 am 06:55 Clear 28 -2 26 -3.2 92 92 NW 6 9 30.39 1029 10 16.0934 0 0
7:15 am 07:15 Clear 29 -1.9 26 -3.5 89 89 NW 6 9 30.39 1029 10 16.0934 0 0
7:35 am 07:35 Clear 28 -2 26 -3.5 90 90 NW 7 11 30.39 1029 10 16.0934 0 0
7:55 am 07:55 Sunny 30 -1.2 26 -3.5 85 85 NNW 8 13 30.36 1028 10 16.0934 0 0
8:15 am 08:15 Sunny 28 -2 26 -3.5 90 90 NW 6 9 30.39 1029 10 16.0934 0 0
8:35 am 08:35 Sunny 29 -1.4 26 -3.2 88 88 NNW 7 11 30.42 1030 10 16.0934 0 0
8:55 am 08:55 Sunny 31 -0.5 27 -2.7 85 85 NNW 8 13 30.39 1029 10 16.0934 0 0
9:15 am 09:15 Sunny 32 0.1 28 -2.3 84 84 NNW 6 9 30.39 1029 10 16.0934 0 0
9:35 am 09:35 Sunny 34 1.2 29 -1.4 83 83 NW 3 6 30.39 1029 10 16.0934 0 0
9:55 am 09:55 Sunny 36 2.4 31 -0.7 80 80 WNW 3 6 30.36 1028 10 16.0934 0 0
10:15 am 10:15 Sunny 38 3.3 31 -0.7 75 75 WNW 6 9 30.39 1029 10 16.0934 0 0
10:35 am 10:35 Sunny 39 4 32 -0.1 75 75 WNW 5 7 30.39 1029 10 16.0934 0 0
10:55 am 10:55 Sunny 40 4.6 32 -0.1 72 72 WNW 6 9 30.39 1029 10 16.0934 0 0
11:15 am 11:15 Sunny 42 5.5 32 0.1 69 69 NW 5 7 30.39 1029 10 16.0934 0 0
11:35 am 11:35 Sunny 43 6.2 31 -0.3 63 63 WNW 5 7 30.36 1028 10 16.0934 0 0
11:55 am 11:55 Sunny 44 6.8 31 -0.4 60 60 WNW 3 6 30.33 1027 10 16.0934 0 0
12:15 pm 12:15 Sunny 45 7.2 30 -1.1 56 56 NW 3 6 30.33 1027 10 16.0934 0 0
12:35 pm 12:35 Sunny 46 7.8 31 -0.5 56 56 Calm 30.33 1027 10 16.0934 0 0
12:55 pm 12:55 Sunny 47 8.5 31 -0.5 53 53 NW 3 6 30.33 1027 10 16.0934 0 0
1:15 pm 13:15 Sunny 47 8.6 32 0 55 55 NW 3 6 30.27 1025 10 16.0934 0 0
1:35 pm 13:35 Sunny 48 9.1 32 0.1 54 54 NW 3 6 30.27 1025 10 16.0934 0 0
1:55 pm 13:55 Sunny 49 9.2 32 -0.1 53 53 Calm 30.27 1025 10 16.0934 0 0
2:15 pm 14:15 Sunny 49 9.7 32 -0.1 51 51 Calm 30.27 1025 10 16.0934 0 0
2:35 pm 14:35 Sunny 49 9.7 33 0.4 53 53 Calm 30.27 1025 10 16.0934 0 0
2:55 pm 14:55 Sunny 50 9.8 34 0.9 54 54 Calm 30.27 1025 10 16.0934 0 0
3:15 pm 15:15 Sunny 49 9.7 32 0.1 52 52 Calm 30.27 1025 10 16.0934 0 0
3:35 pm 15:35 Sunny 50 10 32 0 50 50 Calm 30.27 1025 10 16.0934 0 0
3:55 pm 15:55 Sunny 49 9.5 33 0.6 54 54 Calm 30.27 1025 10 16.0934 0 0
4:15 pm 16:15 Sunny 49 9.3 33 0.4 54 54 Calm 30.27 1025 10 16.0934 0 0
4:35 pm 16:35 Sunny 47 8.4 33 0.8 59 59 Calm 30.33 1027 10 16.0934 0 0
4:55 pm 16:55 Sunny 46 7.7 33 0.5 61 61 Calm 30.33 1027 10 16.0934 0 0
5:15 pm 17:15 Clear 44 6.4 33 0.4 66 66 Calm 30.33 1027 10 16.0934 0 0
5:35 pm 17:35 Clear 42 5.3 32 0 69 69 Calm 30.33 1027 10 16.0934 0 0
5:55 pm 17:55 Clear 40 4.5 33 0.4 75 75 SSE 3 6 30.36 1028 10 16.0934 0 0
6:15 pm 18:15 Clear 40 4.5 32 0 73 73 SSE 3 6 30.36 1028 10 16.0934 0 0
6:35 pm 18:35 Clear 37 2.6 31 -0.7 79 79 SE 5 7 30.36 1028 10 16.0934 0 0
6:55 pm 18:55 Clear 36 2.3 32 0 85 85 Calm 30.36 1028 10 16.0934 0 0
7:15 pm 19:15 Clear 35 1.6 30 -0.9 84 84 SSE 5 7 30.39 1029 10 16.0934 0 0
7:35 pm 19:35 Clear 36 2.1 31 -0.5 83 83 SSE 6 9 30.39 1029 10 16.0934 0 0
7:55 pm 19:55 Clear 35 1.9 30 -0.9 82 82 S 3 6 30.39 1029 10 16.0934 0 0
8:15 pm 20:15 Clear 36 2 30 -1 81 81 S 6 9 30.39 1029 10 16.0934 0 0
8:35 pm 20:35 Clear 36 2 30 -1.3 79 79 SSW 8 13 30.39 1029 10 16.0934 0 0
8:55 pm 20:55 Clear 35 1.7 29 -1.7 78 78 SSW 6 9 30.36 1028 10 16.0934 0 0
9:15 pm 21:15 Clear 36 2 29 -1.9 76 76 SSW 5 7 30.33 1027 10 16.0934 0 0
9:35 pm 21:35 Clear 36 2 29 -1.8 76 76 SSW 6 9 30.33 1027 10 16.0934 0 0
9:55 pm 21:55 Clear 36 2 29 -1.8 76 76 SSW 6 9 30.33 1027 10 16.0934 0 0
10:15 pm 22:15 Clear 35 1.5 28 -2 78 78 SSW 6 9 30.36 1028 10 16.0934 0 0
10:35 pm 22:35 Clear 35 1.4 28 -2 78 78 SSW 7 11 30.36 1028 10 16.0934 0 0
10:55 pm 22:55 Clear 34 1.3 28 -2.1 78 78 SSW 7 11 30.36 1028 10 16.0934 0 0
11:15 pm 23:15 Clear 35 1.6 28 -2 77 77 SSW 8 13 30.36 1028 10 16.0934 0 0
11:35 pm 23:35 Clear 36 2.2 29 -1.7 76 76 SSW 8 13 30.33 1027 10 16.0934 0 0
11:55 pm 23:55 Clear 36 2.2 29 -1.8 75 75 SSW 7 11 30.33 1027 10 16.0934 0 0

Powered by AerisWeather